Total_Precipitation_Accumulation
0.00 0.00 0.00 0.00 0.00 0.01 0.02 0.08 0.27 0.41 0.13 0.08 0.23 0.37 0.38 0.26 0.08 0.01 0.00 0.00 0.00 0.00 0.00 0.00 0.00 0.00 0.00 0.00 0.00 0.00 0.00 0.00
0.00 0.00 0.00 0.00 0.00 0.01 0.01 0.02 0.05 0.15 0.11 0.04 0.16 0.33 0.38 0.28 0.14 0.01 0.00 0.00 0.00 0.00 0.00 0.00 0.00 0.00 0.00 0.01 0.01 0.00 0.00 0.00
0.00 0.00 0.00 0.00 0.00 0.00 0.01 0.00 0.00 0.01 0.02 0.01 0.04 0.14 0.28 0.21 0.16 0.02 0.01 0.00 0.01 0.01 0.00 0.02 0.02 0.01 0.00 0.00 0.01 0.02 0.03 0.02
0.00 0.00 0.00 0.00 0.00 0.00 0.00 0.00 0.00 0.00 0.01 0.01 0.04 0.17 0.27 0.22 0.19 0.04 0.02 0.01 0.02 0.02 0.03 0.03 0.00 0.01 0.02 0.01 0.01 0.00 0.01 0.02
0.00 0.00 0.00 0.00 0.00 0.00 0.00 0.00 0.00 0.00 0.00 0.00 0.01 0.05 0.12 0.07 0.04 0.03 0.01 0.01 0.02 0.01 0.00 0.01 0.03 0.02 0.01 0.01 0.02 0.02 0.02 0.03
0.00 0.00 0.00 0.00 0.00 0.00 0.00 0.00 0.00 0.00 0.00 0.00 0.00 0.01 0.03 0.06 0.06 0.03 0.01 0.00 0.01 0.01 0.01 0.01 0.01 0.02 0.02 0.04 0.06 0.04 0.04 0.04
0.00 0.00 0.00 0.00 0.00 0.00 0.00 0.00 0.00 0.00 0.00 0.00 0.00 0.00 0.01 0.02 0.02 0.02 0.00 0.00 0.00 0.00 0.00 0.00 0.01 0.00 0.02 0.05 0.13 0.07 0.05 0.05
0.00 0.00 0.00 0.00 0.00 0.00 0.00 0.00 0.00 0.00 0.00 0.00 0.00 0.00 0.00 0.00 0.00 0.00 0.00 0.00 0.00 0.00 0.00 0.01 0.03 0.03 0.08 0.13 0.12 0.12 0.13 0.12
0.00 0.00 0.00 0.00 0.00 0.00 0.00 0.00 0.00 0.00 0.00 0.00 0.00 0.00 0.00 0.00 0.00 0.00 0.00 0.00 0.00 0.00 0.00 0.02 0.04 0.10 0.15 0.20 0.15 0.13 0.14 0.11
0.00 0.00 0.00 0.00 0.00 0.00 0.00 0.00 0.00 0.00 0.00 0.00 0.00 0.00 0.00 0.00 0.00 0.01 0.03 0.04 0.04 0.02 0.01 0.01 0.02 0.07 0.17 0.30 0.31 0.20 0.09 0.04
0.00 0.00 0.00 0.00 0.00 0.02 0.05 0.02 0.00 0.00 0.00 0.00 0.00 0.00 0.00 0.00 0.01 0.03 0.05 0.08 0.10 0.09 0.16 0.14 0.10 0.08 0.09 0.09 0.09 0.08 0.07 0.05
0.00 0.00 0.00 0.00 0.00 0.03 0.09 0.14 0.12 0.03 0.00 0.00 0.00 0.00 0.00 0.00 0.01 0.01 0.06 0.29 0.62 0.66 0.47 0.43 0.38 0.30 0.21 0.15 0.11 0.10 0.08 0.07
0.00 0.00 0.00 0.00 0.00 0.01 0.05 0.18 0.20 0.19 0.13 0.02 0.02 0.01 0.00 0.01 0.03 0.10 0.32 0.61 0.49 0.34 0.17 0.13 0.13 0.16 0.18 0.15 0.12 0.10 0.11 0.13
0.00 0.00 0.00 0.00 0.00 0.00 0.00 0.06 0.12 0.16 0.16 0.08 0.05 0.05 0.03 0.07 0.07 0.07 0.15 0.12 0.08 0.03 0.02 0.03 0.04 0.04 0.06 0.13 0.18 0.20 0.22 0.21
0.00 0.00 0.00 0.00 0.00 0.00 0.00 0.01 0.01 0.07 0.13 0.07 0.05 0.03 0.04 0.13 0.12 0.13 0.16 0.16 0.14 0.10 0.08 0.08 0.06 0.03 0.03 0.04 0.06 0.07 0.08 0.12
0.00 0.00 0.00 0.00 0.00 0.00 0.00 0.00 0.01 0.04 0.07 0.05 0.05 0.07 0.02 0.03 0.03 0.03 0.04 0.02 0.02 0.06 0.08 0.10 0.10 0.09 0.09 0.08 0.07 0.06 0.07 0.08
0.00 0.00 0.00 0.00 0.00 0.00 0.00 0.00 0.00 0.00 0.01 0.03 0.04 0.06 0.06 0.03 0.04 0.06 0.04 0.05 0.06 0.06 0.05 0.06 0.06 0.06 0.13 0.09 0.06 0.04 0.04 0.06
0.00 0.00 0.00 0.00 0.00 0.00 0.00 0.00 0.00 0.01 0.01 0.02 0.04 0.06 0.05 0.07 0.05 0.07 0.13 0.12 0.11 0.08 0.08 0.07 0.07 0.06 0.12 0.07 0.08 0.04 0.06 0.07
0.00 0.00 0.00 0.00 0.00 0.00 0.00 0.00 0.00 0.00 0.01 0.02 0.03 0.04 0.05 0.04 0.04 0.04 0.06 0.11 0.13 0.10 0.09 0.10 0.10 0.11 0.14 0.08 0.09 0.03 0.04 0.05